Temperature
8 8 8 8 8 8 9 9 9 9 8 8 9 9 9 9 9 9 8 8 8 8 8 8 8 8 8 8 8 8 8 8 8 8 7 7 6 5 5 5 4 4 4
7 7 7 7 8 8 8 8 8 8 8 8 8 8 8 8 8 8 8 8 8 8 8 8 8 8 8 8 8 8 8 8 7 7 7 6 5 5 5 4 4 3 3
6 7 7 7 7 7 8 8 8 8 8 8 7 7 7 7 7 7 7 7 7 7 7 7 7 7 7 7 7 7 7 7 7 7 6 6 5 4 4 3 3 3 3
6 6 6 6 6 7 7 7 7 7 7 7 7 7 7 7 7 7 7 7 6 7 7 7 7 7 7 7 7 7 7 7 6 6 5 5 5 4 3 3 3 2 2
6 6 6 6 6 6 6 6 6 6 6 6 6 6 6 6 6 6 6 6 6 6 6 6 6 6 6 6 6 6 6 6 6 5 5 4 4 3 3 3 2 2 2
5 5 5 5 5 5 5 5 5 6 6 6 6 6 6 6 5 5 5 5 5 5 5 5 5 6 6 6 6 5 5 5 5 5 5 4 4 3 3 2 2 2 1
5 5 5 4 4 5 5 5 5 5 5 5 5 5 5 5 5 5 4 4 4 5 5 5 5 5 5 5 5 5 4 4 4 4 4 4 3 3 2 2 2 1 1
4 4 4 4 4 4 4 4 4 4 4 4 4 4 4 4 4 4 4 4 4 4 4 4 4 4 4 4 4 4 4 4 3 3 3 3 3 2 2 2 1 1 1
3 4 4 4 4 4 4 4 4 4 4 4 4 4 4 4 3 3 3 3 3 4 4 4 4 4 4 4 3 3 3 3 3 3 2 2 2 2 1 1 1 1 0
3 3 3 3 3 3 3 3 3 3 3 3 3 3 3 3 3 3 3 3 3 3 3 3 3 3 3 3 3 3 3 3 2 2 2 2 1 1 1 1 1 0 0
3 3 3 3 3 3 3 3 3 3 3 3 3 2 2 2 2 2 2 2 3 3 3 3 3 3 2 2 2 2 2 2 2 1 1 1 0 0 -0 -0 -0 -0 -0
2 2 2 2 2 2 2 2 2 2 2 2 2 2 2 2 2 2 2 2 2 2 2 2 2 2 2 2 2 1 1 1 1 1 0 0 -0 -0 -1 -1 -1 -1 -1
2 2 2 2 2 2 2 2 2 1 1 1 1 1 1 1 1 1 1 1 1 1 1 1 1 1 1 1 1 1 1 0 0 -0 -0 -1 -1 -1 -1 -1 -1 -1 -2
2 2 1 1 1 1 1 1 1 1 1 1 1 0 1 1 1 1 1 1 1 1 1 1 1 1 0 0 -0 -0 -0 -0 -1 -1 -1 -1 -1 -2 -2 -2 -2 -2 -2
1 1 1 1 1 1 1 1 0 0 0 0 0 -0 -0 0 0 0 0 0 0 0 0 -0 -0 -0 -0 -0 -1 -1 -1 -1 -1 -2 -2 -2 -2 -2 -2 -3 -3 -3 -2
1 1 0 0 0 0 0 0 0 -0 -0 -0 -0 -0 -0 -0 -0 -0 -0 -0 -0 -0 -0 -0 -1 -1 -1 -1 -1 -1 -2 -2 -2 -2 -2 -3 -3 -3 -3 -3 -3 -3 -3
0 0 0 -0 -0 -0 -0 -0 -0 -0 -0 -0 -0 -1 -1 -0 -0 -0 -0 -0 -1 -1 -1 -1 -1 -1 -1 -2 -2 -2 -2 -2 -3 -3 -3 -3 -3 -3 -3 -3 -3 -3 -3
0 -0 -0 -0 -0 -1 -1 -1 -1 -1 -1 -1 -1 -1 -1 -1 -1 -1 -1 -1 -1 -1 -1 -1 -2 -2 -2 -2 -2 -2 -2 -3 -3 -3 -3 -3 -3 -4 -4 -4 -4 -4 -4
-0 -0 -1 -1 -1 -1 -1 -1 -1 -1 -1 -1 -1 -1 -1 -2 -2 -2 -2 -2 -1 -1 -2 -2 -2 -2 -2 -2 -3 -3 -3 -3 -3 -3 -3 -4 -4 -4 -4 -4 -4 -4 -4
-1 -1 -1 -1 -1 -1 -1 -1 -2 -2 -2 -2 -2 -2 -2 -2 -2 -2 -2 -2 -2 -2 -2 -2 -2 -3 -3 -3 -3 -3 -3 -4 -4 -4 -4 -4 -4 -4 -4 -4 -4 -5 -5
-1 -1 -1 -1 -2 -2 -2 -2 -2 -2 -2 -2 -2 -2 -2 -2 -3 -3 -3 -3 -3 -3 -3 -3 -3 -3 -3 -3 -4 -4 -4 -4 -4 -4 -4 -4 -4 -5 -5 -5 -5 -5 -5
-1 -1 -2 -2 -2 -2 -2 -2 -3 -3 -3 -3 -3 -3 -3 -3 -3 -3 -3 -3 -3 -3 -3 -3 -4 -4 -4 -4 -4 -4 -4 -4 -4 -4 -4 -5 -5 -5 -5 -5 -5 -5 -5
-2 -2 -2 -2 -2 -3 -3 -3 -3 -3 -3 -3 -3 -3 -3 -4 -4 -4 -4 -4 -4 -4 -4 -4 -4 -4 -4 -4 -4 -4 -4 -5 -5 -5 -5 -5 -5 -5 -5 -5 -5 -5 -5
-2 -2 -3 -3 -3 -3 -3 -3 -4 -4 -4 -4 -4 -4 -4 -4 -4 -4 -4 -4 -4 -4 -4 -5 -5 -5 -5 -5 -5 -5 -5 -5 -5 -5 -5 -5 -5 -5 -5 -5 -6 -6 -6
-3 -3 -3 -3 -3 -4 -4 -4 -4 -4 -4 -4 -4 -4 -4 -4 -4 -5 -5 -5 -5 -5 -5 -5 -5 -5 -5 -5 -5 -5 -5 -5 -5 -5 -6 -6 -6 -6 -6 -6 -6 -6 -6
-3 -3 -4 -4 -4 -4 -4 -4 -5 -5 -5 -5 -5 -5 -5 -5 -5 -5 -5 -5 -5 -5 -5 -6 -6 -6 -6 -6 -6 -6 -6 -6 -6 -6 -6 -6 -6 -6 -6 -6 -6 -6 -6
Wind_Speed
5 4 4 4 3 3 1 2 2 2 3 4 4 5 5 5 5 5 5 6 7 7 6 7 7 6 5 5 5 5 5 4 4 2 1 3 4 5 5 5 5 4 3
4 5 5 5 5 5 3 3 3 2 3 4 4 4 4 4 4 5 5 5 6 7 7 7 7 5 6 5 5 5 5 4 4 4 2 3 3 5 5 4 3 3 3
5 5 5 5 5 5 5 4 3 3 3 2 2 4 4 4 4 5 5 5 5 6 6 7 7 6 6 5 6 6 5 4 4 5 3 2 3 3 4 3 3 2 2
5 5 5 5 5 5 5 4 4 3 3 3 3 3 3 3 4 4 4 4 4 4 5 5 5 6 6 7 6 6 5 5 5 5 4 3 3 3 4 3 2 1 0
5 5 5 5 5 5 5 5 4 4 4 4 4 4 3 3 3 3 3 4 4 4 3 4 4 5 6 5 5 6 7 6 6 5 5 4 4 4 4 3 3 2 0
4 4 5 5 5 5 5 5 5 5 4 4 4 4 4 4 4 4 4 3 4 4 3 3 2 3 4 5 6 7 8 8 7 6 4 5 5 5 4 4 4 3 1
4 4 5 5 5 5 5 4 4 4 4 4 4 4 4 5 5 5 4 3 4 4 4 3 2 2 3 4 5 7 5 6 7 7 7 6 6 7 7 5 4 3 2
5 5 5 5 5 5 5 5 5 4 4 4 4 4 4 4 4 4 4 3 3 3 4 4 4 3 4 6 6 5 4 3 4 4 6 6 6 7 7 6 6 4 3
5 5 6 5 5 5 5 5 4 4 4 4 4 4 4 4 3 3 3 2 2 2 2 3 4 5 7 9 8 7 5 3 4 6 7 7 9 10 10 7 6 4 2
5 5 6 5 5 5 5 5 4 3 4 4 4 4 4 3 4 4 3 2 2 2 1 2 4 5 8 8 7 8 7 4 5 6 6 7 6 8 9 6 7 5 3
5 5 5 5 5 5 4 4 4 4 4 3 4 4 3 3 4 4 3 1 2 2 2 1 2 5 7 7 7 6 7 7 6 6 5 5 5 4 4 4 4 4 4
5 5 5 5 5 4 4 4 4 4 3 3 3 4 3 3 4 4 4 2 1 2 2 2 2 5 6 6 5 8 11 9 6 5 5 4 4 3 3 4 5 5 4
4 5 5 5 5 5 4 4 4 4 3 3 3 3 4 3 3 5 4 1 1 1 1 3 4 5 5 5 6 9 9 6 6 5 4 3 3 4 4 4 5 6 7
4 5 5 5 5 5 4 3 3 3 3 3 3 3 3 3 3 2 2 1 1 1 2 3 5 5 4 5 6 5 4 5 5 4 4 4 4 4 3 3 3 2 2
4 4 4 4 4 4 4 4 4 3 4 4 3 3 3 3 4 4 2 1 1 2 3 3 2 2 3 3 3 3 4 4 4 4 5 4 4 4 3 2 2 2 2
3 4 3 3 4 4 4 4 6 6 7 6 5 4 3 4 5 4 3 2 2 4 4 3 3 3 3 4 4 4 3 4 4 4 5 5 5 5 4 3 2 3 3
3 3 3 3 3 4 4 4 5 6 7 7 7 7 6 5 4 3 2 2 4 5 2 2 2 3 3 3 4 4 4 4 4 5 5 5 5 5 4 4 4 3 3
3 3 3 3 3 3 3 3 3 4 5 5 6 6 6 5 4 3 1 2 2 2 1 2 2 2 2 2 3 3 4 4 4 5 5 5 5 5 5 5 4 4 4
2 2 3 3 3 3 3 3 3 3 3 4 4 4 6 5 4 3 2 1 1 2 2 2 2 2 2 2 2 3 3 4 4 4 5 5 5 5 4 5 5 7 5
2 3 3 2 2 3 3 3 3 3 3 3 3 3 3 3 2 2 2 1 0 1 1 2 2 2 2 3 3 2 3 3 4 4 4 5 5 5 5 6 5 5 4
2 3 3 2 2 2 2 3 3 3 3 3 3 4 4 2 2 2 1 1 1 1 1 1 2 2 2 2 3 3 3 3 4 4 4 4 5 5 5 5 5 5 4
2 2 2 2 2 2 2 2 3 3 3 3 3 4 5 2 2 2 2 1 1 1 1 1 2 2 2 3 3 3 3 4 4 4 4 5 5 5 4 5 5 4 4
2 2 2 2 2 3 3 2 3 3 3 3 3 3 2 2 2 2 2 2 1 1 1 1 1 2 2 2 3 3 4 4 4 4 5 5 5 5 5 5 6 6 5
2 2 2 2 2 2 2 3 3 3 3 3 3 3 2 2 2 2 2 2 2 2 1 1 1 2 3 2 3 4 5 5 5 5 5 5 5 5 5 5 5 6 6
3 2 2 2 2 2 3 3 3 3 3 3 3 3 2 2 2 2 2 2 2 2 2 2 1 1 2 3 3 4 5 6 6 6 6 4 5 6 6 5 5 6 6
3 3 3 2 2 3 3 3 3 3 3 3 3 2 2 2 2 3 2 2 2 2 2 2 2 2 3 3 4 5 5 6 7 7 6 4 5 5 5 5 6 6 6
Wind_Direction
18 9 6 1 359 358 334 292 276 267 256 242 239 235 228 226 225 231 241 243 242 240 236 230 232 227 221 216 206 202 198 185 192 167 144 153 155 154 145 144 145 139 143
7 6 4 5 5 3 353 333 326 302 271 249 237 236 236 231 227 226 239 245 241 241 236 230 232 224 217 209 201 200 193 175 175 176 161 156 155 154 143 137 132 137 146
3 5 5 4 4 356 347 341 340 324 309 291 253 241 240 237 237 236 232 238 241 246 243 233 227 215 219 210 200 194 180 163 155 159 158 146 133 129 125 117 120 119 143
4 5 3 356 352 345 338 333 331 323 315 310 289 269 254 245 239 241 241 240 244 250 247 237 223 215 213 202 192 184 165 155 144 142 143 139 129 124 132 144 149 149 130
2 1 351 345 347 346 344 338 335 329 321 313 302 292 279 258 245 241 240 240 239 248 255 246 227 216 207 193 181 170 161 157 147 145 147 141 144 149 166 158 164 142 83
360 351 342 348 349 346 343 340 340 335 323 317 306 295 286 274 264 261 253 239 235 233 242 254 233 195 180 174 167 160 160 158 161 155 157 166 170 163 150 154 151 148 199
360 352 349 349 346 341 341 343 337 328 324 315 309 304 296 281 272 263 260 248 238 231 222 219 223 180 161 149 137 128 137 154 161 161 165 175 170 170 160 159 165 159 180
2 354 348 344 340 341 345 342 333 327 322 315 315 307 301 295 282 262 259 247 237 234 223 207 198 183 168 150 135 122 112 119 146 149 159 165 163 161 163 160 152 121 89
355 347 339 336 338 341 339 332 326 328 329 324 321 321 311 307 299 274 260 224 225 237 223 201 184 177 170 155 144 136 122 103 103 122 132 142 149 153 149 132 135 133 137
339 336 335 334 336 332 326 324 327 330 326 329 329 324 312 304 302 289 269 212 210 222 213 198 184 180 173 164 153 149 149 145 122 108 99 101 114 141 152 154 156 150 141
332 338 341 342 338 332 331 331 333 335 335 336 331 323 315 307 310 308 306 246 206 194 192 201 194 182 172 165 155 153 160 145 128 119 111 102 93 95 98 119 137 146 150
339 344 344 342 341 343 342 340 341 338 336 332 330 328 329 326 327 322 324 297 205 176 188 190 179 168 162 157 155 156 149 136 124 123 125 126 122 118 108 103 105 100 100
346 343 340 340 344 345 345 341 341 340 334 328 327 325 327 331 331 330 326 330 102 102 165 167 153 145 144 147 155 152 143 134 135 138 145 142 130 128 118 104 91 90 80
344 337 338 342 344 346 344 339 340 337 332 325 319 316 314 315 314 319 322 337 107 99 127 145 136 125 115 133 144 140 135 144 146 149 145 135 126 126 128 128 127 117 101
336 332 335 338 336 338 339 335 327 313 313 313 299 293 295 295 292 301 306 287 175 164 135 120 118 129 133 136 131 131 135 140 145 143 147 148 149 148 148 141 140 136 142
330 329 328 331 331 331 330 331 340 340 337 337 332 324 305 300 303 303 298 271 200 165 142 152 161 169 174 173 168 163 159 161 162 158 159 163 165 167 164 159 155 161 170
310 314 319 322 322 322 325 326 329 337 345 348 348 346 343 338 332 316 278 198 175 159 143 161 172 182 182 179 179 177 177 171 165 166 169 170 169 169 169 172 172 171 177
302 303 309 307 309 312 313 312 313 321 329 332 337 341 346 347 351 356 6 138 161 151 147 172 179 179 176 179 182 181 171 164 167 172 173 174 175 175 177 179 181 181 182
294 298 300 301 304 307 310 312 313 314 315 321 333 339 344 346 359 12 52 111 174 171 170 181 182 176 177 181 181 177 172 173 174 175 177 179 180 180 184 186 186 192 188
283 298 311 302 305 312 317 318 316 313 312 317 324 327 337 350 356 360 9 2 207 199 191 193 192 183 180 180 177 175 177 178 177 179 180 181 183 185 186 184 184 186 190
277 292 303 306 298 299 305 307 308 312 314 314 312 320 338 341 333 337 344 332 282 226 208 205 197 187 184 179 176 180 184 189 186 182 180 182 183 188 188 186 187 187 183
262 274 280 282 290 294 303 301 300 301 305 307 311 318 327 338 331 325 321 317 317 286 228 203 200 194 189 188 187 189 194 198 196 191 189 186 186 187 184 185 187 186 185
248 263 274 286 287 296 303 303 300 299 302 305 307 311 316 314 313 313 312 312 313 307 286 214 197 199 185 197 198 197 202 207 205 197 191 190 190 191 191 193 192 191 194
234 245 258 273 279 284 290 295 297 300 305 308 311 310 309 308 309 309 310 314 316 313 315 284 231 219 210 213 223 220 219 215 207 202 196 194 194 195 195 196 196 198 199
231 237 247 255 262 272 279 286 293 298 300 300 302 306 310 313 313 310 309 311 312 307 308 304 288 262 238 228 230 232 228 220 213 205 199 198 198 198 197 196 200 201 201
230 236 242 246 251 258 263 271 278 283 287 293 297 297 300 303 306 309 309 308 304 300 297 292 296 295 287 270 251 238 232 227 223 213 198 195 198 201 198 201 202 202 200
Height
1461 1461 1460 1460 1459 1459 1459 1459 1459 1459 1460 1460 1460 1461 1461 1461 1461 1461 1461 1462 1462 1462 1462 1462 1462 1463 1464 1465 1467 1468 1469 1470 1471 1472 1474 1476 1478 1479 1481 1483 1483 1484 1486
1460 1459 1458 1457 1456 1456 1455 1455 1455 1455 1455 1455 1455 1456 1456 1456 1456 1455 1455 1456 1455 1455 1455 1456 1456 1457 1457 1458 1460 1461 1462 1463 1465 1466 1468 1470 1473 1475 1477 1479 1480 1481 1482
1459 1458 1457 1455 1454 1453 1453 1452 1452 1451 1451 1451 1451 1451 1451 1451 1451 1451 1451 1451 1450 1450 1450 1449 1449 1450 1451 1452 1453 1454 1455 1457 1460 1461 1463 1465 1468 1470 1472 1474 1476 1478 1479
1457 1456 1455 1453 1452 1451 1450 1450 1449 1448 1447 1447 1446 1446 1446 1446 1446 1446 1446 1445 1445 1445 1445 1444 1445 1445 1445 1446 1447 1449 1450 1452 1454 1456 1458 1461 1463 1466 1468 1470 1472 1474 1475
1456 1454 1453 1452 1451 1450 1448 1447 1446 1445 1444 1444 1443 1442 1442 1441 1441 1441 1441 1441 1440 1440 1440 1440 1440 1441 1441 1442 1443 1444 1446 1447 1449 1451 1454 1456 1459 1461 1464 1466 1469 1470 1472
1455 1453 1451 1450 1449 1447 1446 1445 1443 1442 1442 1441 1440 1438 1437 1436 1436 1436 1436 1436 1436 1436 1436 1436 1436 1436 1437 1439 1440 1441 1443 1444 1446 1448 1450 1452 1455 1457 1460 1463 1465 1466 1468
1453 1452 1450 1448 1447 1445 1444 1442 1441 1439 1438 1437 1436 1434 1433 1432 1432 1432 1432 1432 1432 1432 1432 1432 1432 1433 1434 1435 1436 1437 1439 1441 1444 1446 1447 1449 1452 1454 1456 1459 1461 1463 1465
1452 1450 1448 1447 1445 1443 1441 1440 1438 1436 1435 1434 1432 1430 1429 1428 1428 1428 1428 1428 1428 1428 1429 1429 1429 1430 1430 1431 1433 1435 1436 1438 1440 1442 1444 1446 1448 1451 1453 1456 1458 1460 1462
1451 1449 1447 1445 1443 1441 1439 1438 1436 1434 1433 1431 1429 1427 1426 1425 1425 1425 1425 1425 1424 1425 1425 1425 1425 1426 1427 1428 1430 1431 1434 1436 1438 1439 1441 1443 1445 1448 1450 1453 1455 1457 1459
1450 1448 1446 1444 1442 1440 1438 1436 1434 1432 1430 1428 1426 1425 1424 1422 1422 1422 1422 1421 1421 1421 1421 1422 1423 1423 1425 1425 1427 1428 1430 1433 1435 1436 1438 1440 1443 1445 1448 1450 1452 1454 1456
1449 1447 1445 1442 1440 1438 1436 1434 1432 1430 1427 1425 1424 1423 1422 1420 1419 1419 1418 1418 1418 1418 1419 1419 1420 1421 1422 1423 1424 1426 1428 1430 1432 1434 1436 1438 1440 1443 1445 1447 1450 1452 1454
1447 1445 1443 1441 1439 1436 1435 1432 1430 1428 1426 1424 1422 1421 1420 1419 1418 1417 1417 1416 1416 1416 1416 1417 1417 1419 1420 1421 1422 1423 1426 1428 1429 1431 1433 1435 1438 1440 1443 1445 1447 1449 1451
1446 1444 1442 1439 1437 1435 1433 1431 1429 1427 1425 1422 1421 1419 1418 1417 1417 1416 1415 1415 1414 1414 1414 1415 1416 1417 1418 1419 1420 1421 1423 1425 1427 1429 1431 1433 1436 1438 1440 1442 1444 1447 1449
1444 1442 1440 1438 1436 1434 1432 1430 1428 1425 1423 1421 1420 1418 1417 1416 1415 1414 1413 1413 1413 1413 1413 1414 1414 1415 1416 1417 1419 1420 1422 1424 1426 1428 1430 1431 1433 1435 1438 1440 1442 1444 1446
1443 1441 1439 1437 1435 1433 1431 1429 1427 1424 1422 1420 1418 1417 1415 1414 1413 1413 1412 1411 1411 1411 1411 1412 1413 1413 1414 1415 1417 1418 1420 1422 1424 1426 1428 1429 1431 1433 1435 1438 1440 1441 1443
1441 1439 1437 1435 1434 1432 1429 1427 1425 1423 1421 1419 1417 1415 1414 1413 1411 1410 1410 1410 1409 1410 1410 1411 1411 1412 1413 1414 1415 1417 1418 1420 1422 1424 1425 1427 1429 1431 1433 1435 1437 1439 1441
1439 1438 1436 1434 1432 1430 1428 1425 1423 1421 1419 1417 1415 1414 1412 1411 1410 1409 1408 1408 1408 1408 1409 1409 1410 1411 1411 1412 1414 1415 1416 1418 1420 1421 1423 1425 1427 1429 1431 1433 1434 1436 1438
1437 1435 1434 1432 1430 1428 1426 1424 1422 1419 1417 1415 1414 1412 1411 1409 1408 1407 1407 1407 1406 1407 1407 1408 1408 1409 1410 1410 1412 1413 1414 1416 1417 1419 1421 1422 1424 1426 1428 1430 1431 1433 1435
1434 1433 1431 1429 1428 1426 1424 1422 1420 1418 1416 1414 1412 1410 1409 1408 1407 1406 1405 1405 1405 1405 1405 1406 1406 1406 1407 1408 1409 1410 1412 1413 1415 1416 1418 1420 1421 1423 1425 1427 1428 1430 1432
1431 1430 1428 1427 1425 1423 1421 1420 1418 1416 1414 1412 1410 1409 1408 1407 1405 1405 1404 1404 1403 1403 1403 1403 1404 1404 1405 1405 1406 1407 1408 1410 1412 1413 1415 1416 1418 1420 1421 1423 1425 1427 1428
1428 1426 1425 1424 1422 1421 1419 1417 1416 1414 1412 1411 1409 1408 1407 1405 1404 1403 1402 1402 1401 1401 1401 1401 1401 1402 1402 1403 1403 1404 1405 1407 1408 1410 1411 1413 1414 1416 1418 1420 1421 1423 1425
1424 1423 1422 1421 1419 1418 1416 1415 1413 1412 1410 1409 1407 1406 1405 1404 1402 1402 1401 1400 1400 1399 1399 1399 1399 1399 1399 1400 1400 1401 1402 1404 1405 1406 1408 1409 1411 1412 1414 1416 1417 1419 1421
1420 1419 1418 1417 1416 1415 1414 1412 1411 1409 1408 1406 1405 1404 1402 1401 1400 1400 1399 1398 1398 1397 1397 1396 1396 1396 1397 1397 1398 1398 1399 1400 1402 1403 1404 1406 1407 1409 1410 1412 1414 1415 1417
1416 1415 1415 1414 1413 1412 1410 1409 1408 1407 1405 1404 1403 1401 1400 1399 1398 1397 1397 1396 1395 1394 1394 1393 1393 1393 1394 1394 1395 1395 1396 1397 1398 1400 1401 1402 1403 1405 1407 1408 1410 1412 1414
1412 1411 1411 1410 1409 1408 1407 1406 1405 1403 1402 1401 1400 1398 1397 1396 1395 1395 1394 1393 1392 1392 1391 1391 1390 1391 1391 1391 1392 1392 1393 1394 1395 1396 1397 1399 1400 1401 1403 1404 1406 1408 1410
1408 1407 1406 1406 1405 1404 1403 1402 1401 1400 1399 1398 1397 1396 1394 1393 1393 1392 1391 1390 1389 1389 1388 1388 1388 1388 1388 1388 1389 1389 1390 1390 1391 1392 1393 1395 1396 1397 1399 1400 1402 1404 1405